Back to catalog

STARLINK-5512

AliveCommunicationsVLEO
NORAD 57256·PAYLOAD·🇺🇸 United States

Launched Jul 7, 2023 from Vandenberg Space Force Base

Loading…

Next Passes (next 24 hours)

TLE

FreshSource: CelesTrak SupGP

Epoch: Sep 14, 2026, 21:23 UTC

1 57256C 23094AQ  26257.89145833  .00037115  00000+0  13442-2 0  2575
2 57256  43.0027  31.4044 0001438 272.6319 162.5827 15.27561942    19

Track STARLINK-5512 in real time with AllMySat

Download on the App Store